Location: Bartshausen
(51.8454°N, 9.8167°E)
Time: 09:30:37
(UTC+00:00)

Lacrosse 4 Rocket - Pass Details

Date: 08 November 2025
Orbit: 513 x 567 km, 68.0° (Epoch: 12 December)

Event Time Altitude Azimuth Distance (km) Brightness Sun altitude
Exits shadow 05:11:49 - 336° (NNW) 2,290 4.1 -11.9°
Reaches altitude 10° 05:13:46 10° 355° (N) 1,811 3.8 -11.6°
Maximum altitude 05:15:41 13° 24° (NNE) 1,618 3.8 -11.3°
Drops below altitude 10° 05:17:35 10° 52° (NE) 1,791 4.5 -11.0°
Sets 05:20:51 0° 82° (E) 2,665 6.2 -10.5°
